[[{"header":{"parameterUnit":"m.s-1","parameterCategory":1,"la1":30.2991,"la2":30.254,"lo1":-89.0895,"lo2":-89.0444,"dx":0.0017,"dy":0.0017,"nx":28,"ny":28,"refTime":"2022-12-14T09:00:00:Z","depth":0,"parameterNumber":2,"parameterNumberName":"U-component_of_WINDS"},"data":[0,0,0,0,0,0,0,0,0,0,0,0,0,0,0,0,0,0,0,0,0,0,0,0,0,0,0,0,0,0,0,0,0,0,0,0,0,0,0,0,0,0,0,0,0,0,0,0,0,0,0,0,0,0,0,0,0,0,3.9832,3.9834,0,3.9946,3.9947,3.9948,3.9895,3.9892,3.989,3.9887,4.0004,4.001,4.0015,0,0,0,0,0,0,0,0,0,0,0,0,0,3.9572,3.9577,3.9832,3.9834,3.9835,3.9945,3.9947,3.9948,3.9896,3.9892,3.9889,3.9886,4.0002,4.0009,4.0016,0,0,0,0,0,0,0,0,0,0,0,0,0,3.9685,3.9579,3.9832,3.9822,3.9822,3.9945,3.9947,3.9949,3.9897,3.9892,3.9888,3.9884,4.0,4.0008,4.0017,4.0156,0,0,4.0043,4.0047,0,0,0,0,0,0,0,0,3.9679,3.9695,3.9822,3.9823,3.9824,3.9902,3.9898,4.0018,3.9898,3.9868,3.9887,3.9882,3.9974,3.9984,4.0015,4.0162,4.0167,4.0044,4.0049,4.0053,4.0055,0,0,0,0,0,0,0,3.9671,3.969,3.9877,3.9824,3.9825,3.9813,3.9824,3.9921,3.9944,3.9871,3.9867,3.9881,3.9973,4.0007,4.0017,4.0168,4.0044,4.0051,4.0057,4.006,4.0436,4.0441,0,0,0,0,0,0,3.9664,3.9684,3.9874,3.9881,3.9739,3.9821,3.9833,3.9881,3.9942,3.9948,3.9885,3.9878,3.9994,4.0007,4.0021,4.0189,4.0053,4.0061,4.0066,4.0432,4.0437,4.0442,0,0,0,0,0,0,3.9658,3.9681,3.9869,3.9781,3.9804,3.983,3.9884,3.9886,3.9919,3.9953,3.9957,3.9915,3.9991,4.0009,4.0123,4.0192,4.0065,4.0073,4.0426,4.0433,4.044,4.0525,0,0,0,0,0,0,3.9651,3.9679,3.9732,3.9783,3.9809,3.9969,3.9888,3.9891,3.9934,3.9927,3.9982,3.9987,3.9989,4.011,4.0132,4.0202,4.008,4.042,4.0429,4.0438,4.0516,4.0535,4.055,0,0,0,0,0,3.9642,3.9752,3.9735,3.9758,3.9876,3.9973,3.9988,3.9987,3.994,3.9993,4.0015,3.9985,4.0181,4.0123,4.0146,4.022,4.0415,4.0427,4.0437,4.0509,4.0531,4.055,0,0,0,0,0,0,3.9709,3.9758,3.974,3.987,3.9918,3.9964,4.0031,4.0011,4.0073,4.0064,4.0061,4.0074,4.0192,4.0217,4.0151,4.0358,4.0291,4.0307,4.0338,4.0359,4.0375,4.0367,4.0087,0,0,0,0,0,3.9738,3.9813,3.9852,3.9963,3.9988,4.0006,4.0048,4.0044,4.0093,4.0113,4.0143,4.0193,4.0266,4.0314,4.0382,4.052,4.0532,4.0582,4.0599,4.0613,4.0627,4.0702,4.0725,4.0478,4.0478,4.0478,0,0,3.9801,3.9837,3.9884,3.9977,4.0014,4.0092,4.0023,4.0108,4.0166,4.0126,4.0236,4.026,4.0315,4.0442,4.0499,4.0467,4.0698,4.0626,4.0637,4.0644,4.0716,4.0739,4.076,4.0485,4.0484,4.0483,0,0,3.9954,3.9989,4.0085,4.0123,4.0179,4.0191,4.0214,4.0264,4.0278,4.0388,4.036,4.043,4.0555,4.0595,4.0632,4.0803,4.0778,4.0825,4.0913,4.0986,4.1006,4.1023,4.1085,4.1107,4.0839,4.0839,4.0839,0,4.0025,4.014,4.0137,4.0225,4.0267,4.0234,4.0332,4.0369,4.0446,4.0476,4.0438,4.0595,4.0629,4.0766,4.0807,4.0838,4.0865,4.0819,4.1003,4.1021,4.1037,4.1095,4.1118,4.0844,4.0844,4.0843,4.0843,0,4.0225,4.0305,4.0376,4.0451,4.0501,4.0593,4.0605,4.0656,4.0647,4.0663,4.0776,4.0817,4.0894,4.0926,4.0918,4.1061,4.1039,4.1003,4.0935,4.1066,4.1121,4.1143,4.0852,4.085,4.0849,4.0847,0,0,4.0423,4.0495,4.0521,4.0554,4.0614,4.0677,4.0768,4.0843,4.0888,4.0942,4.1019,4.1126,4.1092,4.1135,4.1131,4.1196,4.1329,4.1151,4.1153,4.1184,4.149,4.1518,4.1544,4.1313,4.1317,4.1321,4.1486,0,4.0581,4.074,4.0741,4.0888,4.0963,4.0934,4.1013,4.1059,4.1077,4.1143,4.1162,4.1239,4.1189,4.1214,4.1277,4.13,4.1391,4.1288,4.1385,4.1389,4.1372,4.1572,4.1602,4.1756,4.1507,4.1511,4.1514,0,4.0787,4.0847,4.1002,4.1052,4.1083,4.1155,4.1224,4.1288,4.134,4.1348,4.1396,4.1383,4.1477,4.1406,4.1536,4.1466,4.1506,4.1523,4.1529,4.1539,4.1459,4.1587,4.1805,4.1828,4.1547,4.1545,4.1542,0,4.0917,4.1037,4.1145,4.1175,4.1235,4.1287,4.1314,4.1362,4.1407,4.1468,4.1497,4.1568,4.1607,4.1663,4.167,4.1618,4.1801,4.1731,4.1811,4.1811,4.1851,4.1848,4.2078,4.1876,4.1876,4.1875,4.1875,0,4.1093,4.1189,4.1204,4.1271,4.1378,4.1378,4.1484,4.1508,4.155,4.1622,4.1601,4.1668,4.1673,4.1743,4.1749,4.1856,4.1874,4.1883,4.1884,4.1886,4.1884,4.1912,4.1901,4.1882,4.188,4.1879,4.1878,0,4.1257,4.127,4.1387,4.1435,4.1449,4.1526,4.1567,4.1631,4.1647,4.1737,4.1759,4.1783,4.1864,4.1877,4.1972,4.1976,4.2104,4.2094,4.2087,4.2085,4.2165,4.2158,4.242,4.2455,4.2231,4.2233,4.2235,0,4.1368,4.1442,4.1498,4.1544,4.1574,4.1649,4.1695,4.1698,4.1747,4.1812,4.1869,4.1947,4.2011,4.2142,4.2168,4.2241,4.2232,4.2319,4.2243,4.2243,4.2234,4.223,4.2237,4.2334,4.2337,4.2339,4.234,0,4.1566,4.1569,4.1636,4.1707,4.1762,4.1818,4.187,4.1909,4.1919,4.1976,4.2058,4.2107,4.2204,4.2283,4.2356,4.2385,4.2365,4.2364,4.2387,4.2389,4.2382,4.2387,4.2127,4.2358,4.2356,4.2355,4.2354,4.2353,4.1708,4.1771,4.1821,4.1897,4.1937,4.1986,4.2049,4.2072,4.2141,4.222,4.2218,4.2309,4.2359,4.2455,4.2489,4.256,4.2532,4.2565,4.2573,4.2581,4.2589,4.2371,4.2573,4.2573,4.2573,4.2572,4.2572,0,4.1904,4.1935,4.2005,4.2078,4.2139,4.2114,4.2171,4.2223,4.2303,4.2352,4.2414,4.251,4.2586,4.2619,4.2695,4.2746,4.2738,4.2765,4.2762,4.2769,4.261,4.2583,4.277,4.277,4.277,4.277,4.277,4.277,4.2014,4.2121,4.2131,4.2257,4.2287,4.2376,4.2411,4.2457,4.2496,4.2603,4.2666,4.2687,4.273,4.2808,4.2878,4.2886,4.2914,4.2946,4.295,4.28,4.278,4.2761,4.2736,4.2952,4.2952,4.3103,4.3104,4.3105]},{"header":{"parameterUnit":"m.s-1","parameterCategory":1,"la1":30.2991,"la2":30.254,"lo1":-89.0895,"lo2":-89.0444,"dx":0.0017,"dy":0.0017,"nx":28,"ny":28,"refTime":"2022-12-14T09:00:00:Z","depth":0,"parameterNumber":3,"parameterNumberName":"V-component_of_WINDS"},"data":[0,0,0,0,0,0,0,0,0,0,0,0,0,0,0,0,0,0,0,0,0,0,0,0,0,0,0,0,0,0,0,0,0,0,0,0,0,0,0,0,0,0,0,0,0,0,0,0,0,0,0,0,0,0,0,0,0,0,-3.3112,-3.3114,0,-3.3298,-3.3301,-3.3303,-3.331,-3.3308,-3.3305,-3.3303,-3.3498,-3.3505,-3.3512,0,0,0,0,0,0,0,0,0,0,0,0,0,-3.2765,-3.2772,-3.3112,-3.3114,-3.3116,-3.3298,-3.3301,-3.3303,-3.331,-3.3307,-3.3305,-3.3302,-3.3496,-3.3504,-3.3513,0,0,0,0,0,0,0,0,0,0,0,0,0,-3.293,-3.2774,-3.3111,-3.3142,-3.3146,-3.3298,-3.3301,-3.3304,-3.3311,-3.3307,-3.3304,-3.3301,-3.3493,-3.3503,-3.3514,-3.3649,0,0,-3.3547,-3.3552,0,0,0,0,0,0,0,0,-3.2921,-3.2943,-3.3135,-3.314,-3.3145,-3.3277,-3.325,-3.342,-3.3312,-3.3248,-3.3303,-3.3299,-3.3428,-3.3444,-3.3486,-3.3658,-3.3666,-3.3548,-3.3555,-3.356,-3.3563,0,0,0,0,0,0,0,-3.2909,-3.2935,-3.3186,-3.3138,-3.3144,-3.3147,-3.3167,-3.3282,-3.3355,-3.3254,-3.3255,-3.3276,-3.343,-3.3476,-3.3491,-3.3669,-3.3548,-3.3558,-3.3565,-3.3569,-3.3963,-3.3967,0,0,0,0,0,0,-3.2891,-3.2925,-3.318,-3.3191,-3.3022,-3.3156,-3.3178,-3.3238,-3.3353,-3.3368,-3.3279,-3.3276,-3.3459,-3.3478,-3.3498,-3.3664,-3.356,-3.357,-3.3576,-3.396,-3.3964,-3.3969,0,0,0,0,0,0,-3.2884,-3.2914,-3.3172,-3.3059,-3.3092,-3.3166,-3.3233,-3.3244,-3.329,-3.3373,-3.3386,-3.3312,-3.3457,-3.3482,-3.3612,-3.3671,-3.3575,-3.3585,-3.3955,-3.3961,-3.3966,-3.3998,0,0,0,0,0,0,-3.2874,-3.2911,-3.2962,-3.306,-3.3098,-3.3282,-3.3237,-3.325,-3.3308,-3.3306,-3.3407,-3.3421,-3.3456,-3.3595,-3.3622,-3.3684,-3.3593,-3.395,-3.3958,-3.3965,-3.3992,-3.4004,-3.4015,0,0,0,0,0,-3.2862,-3.2964,-3.2965,-3.2995,-3.3163,-3.3285,-3.3307,-3.3344,-3.3313,-3.3365,-3.3419,-3.3418,-3.366,-3.3608,-3.3639,-3.3705,-3.3946,-3.3955,-3.3964,-3.3987,-3.4002,-3.4015,0,0,0,0,0,0,-3.2873,-3.2977,-3.2979,-3.3116,-3.3192,-3.3286,-3.3353,-3.3359,-3.3445,-3.344,-3.3483,-3.3506,-3.3635,-3.3683,-3.3623,-3.3843,-3.38,-3.3815,-3.3807,-3.3822,-3.3833,-3.3819,-3.3602,0,0,0,0,0,-3.2891,-3.298,-3.3067,-3.318,-3.3217,-3.3279,-3.3334,-3.3356,-3.3436,-3.3468,-3.3531,-3.361,-3.3705,-3.3766,-3.3857,-3.3999,-3.4022,-3.406,-3.4071,-3.408,-3.4093,-3.4174,-3.4192,-3.3998,-3.3998,-3.3997,0,0,-3.293,-3.2998,-3.3052,-3.3184,-3.3245,-3.3338,-3.3306,-3.3405,-3.3475,-3.3484,-3.361,-3.3659,-3.375,-3.3887,-3.395,-3.3931,-3.4152,-3.4091,-3.4098,-3.4106,-3.4185,-3.4203,-3.4219,-3.4004,-3.4003,-3.4002,0,0,-3.3049,-3.3108,-3.3209,-3.3271,-3.3363,-3.3404,-3.3428,-3.3522,-3.3555,-3.3682,-3.369,-3.3775,-3.3936,-3.4001,-3.4055,-3.4199,-3.4202,-3.4228,-3.4288,-3.4366,-3.4381,-3.4395,-3.4448,-3.4466,-3.424,-3.4241,-3.4241,0,-3.3086,-3.3225,-3.3261,-3.3361,-3.3419,-3.343,-3.3534,-3.3592,-3.371,-3.3751,-3.3727,-3.393,-3.3993,-3.4145,-3.4181,-3.4224,-3.4254,-3.4217,-3.4376,-3.439,-3.4403,-3.4454,-3.4474,-3.4243,-3.4243,-3.4243,-3.4242,0,-3.3267,-3.3363,-3.3434,-3.3546,-3.3613,-3.3714,-3.3767,-3.383,-3.3846,-3.389,-3.402,-3.4095,-3.4202,-3.424,-3.4257,-3.4396,-3.4381,-3.4366,-3.4324,-3.4424,-3.4473,-3.4492,-3.4247,-3.4246,-3.4245,-3.4245,0,0,-3.3398,-3.3529,-3.3554,-3.3606,-3.3709,-3.3786,-3.3888,-3.3992,-3.4046,-3.4127,-3.4215,-3.4351,-3.4338,-3.44,-3.4425,-3.4493,-3.4605,-3.447,-3.4473,-3.4494,-3.4764,-3.4775,-3.4797,-3.4607,-3.4611,-3.4614,-3.4757,0,-3.3528,-3.3709,-3.3745,-3.3902,-3.3993,-3.4005,-3.4095,-3.4169,-3.4212,-3.4297,-3.4345,-3.4442,-3.4416,-3.4454,-3.4522,-3.4577,-3.466,-3.4567,-3.4691,-3.4695,-3.4669,-3.4823,-3.4835,-3.4966,-3.4776,-3.4779,-3.4782,0,-3.3705,-3.379,-3.3956,-3.4048,-3.4087,-3.4167,-3.4266,-3.4345,-3.443,-3.4457,-3.4526,-3.4544,-3.4653,-3.4605,-3.4756,-3.4692,-3.4745,-3.478,-3.4786,-3.48,-3.4745,-3.4842,-3.5009,-3.5029,-3.4812,-3.4809,-3.4807,0,-3.3785,-3.3941,-3.4061,-3.4105,-3.4215,-3.4271,-3.432,-3.4401,-3.4461,-3.4548,-3.4588,-3.4687,-3.4741,-3.4818,-3.4863,-3.4823,-3.5012,-3.4967,-3.5039,-3.5038,-3.5079,-3.5076,-3.5258,-3.5111,-3.511,-3.511,-3.511,0,-3.3928,-3.403,-3.4099,-3.4172,-3.4287,-3.4328,-3.4441,-3.449,-3.4562,-3.4647,-3.4664,-3.4744,-3.4797,-3.4885,-3.4921,-3.5042,-3.5066,-3.5092,-3.5101,-3.5092,-3.5089,-3.5128,-3.512,-3.5115,-3.5114,-3.5113,-3.5112,0,-3.4038,-3.4088,-3.4219,-3.4313,-3.4339,-3.4419,-3.45,-3.4573,-3.4617,-3.4724,-3.4752,-3.4821,-3.4925,-3.4977,-3.5107,-3.5131,-3.5269,-3.5271,-3.524,-3.5243,-3.5313,-3.5306,-3.5528,-3.5559,-3.539,-3.5391,-3.5393,0,-3.4126,-3.4204,-3.4306,-3.4363,-3.4413,-3.4505,-3.4567,-3.4611,-3.4675,-3.4778,-3.4839,-3.4944,-3.503,-3.5197,-3.526,-3.536,-3.5366,-3.5436,-3.5381,-3.537,-3.5369,-3.5364,-3.5373,-3.5446,-3.5448,-3.5449,-3.545,0,-3.4278,-3.4299,-3.4386,-3.4483,-3.4556,-3.4635,-3.4712,-3.4759,-3.4816,-3.4887,-3.4993,-3.506,-3.5193,-3.5297,-3.5402,-3.5454,-3.5463,-3.5467,-3.549,-3.5482,-3.5461,-3.5475,-3.5268,-3.5462,-3.5461,-3.546,-3.546,-3.5459,-3.4381,-3.4452,-3.4534,-3.4632,-3.4694,-3.4767,-3.484,-3.4893,-3.4982,-3.5092,-3.5113,-3.5227,-3.5311,-3.5452,-3.5508,-3.5599,-3.5583,-3.5615,-3.5623,-3.5631,-3.5635,-3.5445,-3.5618,-3.5617,-3.5617,-3.5617,-3.5617,0,-3.4535,-3.4589,-3.4678,-3.4785,-3.4863,-3.4862,-3.4948,-3.5013,-3.5112,-3.519,-3.5274,-3.5397,-3.5499,-3.557,-3.5674,-3.5733,-3.574,-3.5759,-3.5756,-3.5768,-3.5642,-3.5613,-3.5752,-3.5752,-3.5752,-3.5752,-3.5752,-3.5752,-3.4624,-3.4744,-3.4775,-3.4927,-3.4981,-3.5091,-3.514,-3.5208,-3.527,-3.5406,-3.549,-3.5535,-3.5611,-3.5721,-3.5815,-3.5834,-3.5872,-3.5892,-3.591,-3.5791,-3.5777,-3.5763,-3.5736,-3.5899,-3.5899,-3.6029,-3.603,-3.6031]}]]